User: anonymous   Login
Location: Elstree
(51.6403°N, 0.2969°W)
Time: 21:39:46
(UTC+00:00)
Language:

Cosmos 1302 Rocket - Orbit

View from above orbital plane
View from above orbital plane
View from above satellite
View from above satellite

Ground track
Ground track

The orbit data is extracted from the following two-line orbital elements,

1 12792U 81084B   21134.84367858  .00000025  00000-0  16992-4 0  9990
2 12792  74.0289 286.9478 0014372 228.8727 131.1187 14.37620181 79887
Epoch (UTC): 14 May 2021 20:14:53
Eccentricity: 0.0014372
inclination: 74.0289°
perigee height: 756 km
apogee height: 776 km
right ascension of ascending node: 286.9478°
argument of perigee: 228.8727°
revolutions per day: 14.37620181
mean anomaly at epoch: 131.1187°
orbit number at epoch: 7988

The dashed part of the orbit path shows where the satellite is in the earth's shadow,  

DLR